Regional Weather Roundup
Issued by NWS Albany, NY

Home | Current Version | Previous Version | Text Only | Print | Product List | Glossary On
Versions: 1 2 3 4 5 6 7 8 9 10 11 12 13 14 15 16 17 18 19 20 21 22 23 24 25 26 27 28 29 30 31 32 33 34 35 36 37 38 39 40 41 42 43 44 45 46 47 48 49 50
000
ASUS41 KALY 081410
RWRALY

NEW YORK STATE HOURLY WEATHER ROUNDUP
NATIONAL WEATHER SERVICE ALBANY NY
900 AM EST MON FEB 08 2016

NOTE: "FAIR" INDICATES FEW OR NO CLOUDS BELOW 12,000 FEET WITH NO
SIGNIFICANT WEATHER AND/OR NO OBSTRUCTIONS TO VISIBILITY.

NYZ032-033-038>043-046>054-057>066-NYZ062>081-081500-
EAST


CITY           SKY/WX    TMP DP  RH WIND       PRES   REMARKS
ALBANY         CLOUDY    30  20  66 N7        29.90R WCI  23
GLENS FALLS    MOSUNNY   25  17  72 NE5       29.91R WCI  19
POUGHKEEPSIE   CLOUDY    35  18  49 E10       29.83S WCI  27
NEWBURGH       PTSUNNY   34  23  64 E15       29.81F WCI  24
MONTGOMERY     CLOUDY    34  24  67 NE10      29.80F WCI  26
WHITE PLAINS   LGT SNOW  34  25  69 NE13G21   29.77F FOG     WCI  25
ISLIP          SNOW      31  27  85 NE23G30   29.75S VSB 1/2 WCI  18
NEW YORK CITY  CLOUDY    37  26  64 NE21G29   29.78F WCI  26
CENTRAL PARK   CLOUDY    37  23  56 NE13G25   29.79F WCI  29
$$

NYZ005>009-017-018-044>046-055-056-081500-
CENTRAL


CITY           SKY/WX    TMP DP  RH WIND       PRES   REMARKS
FULTON         MOSUNNY   35  23  61 VRB6      29.81S WCI  30
SYRACUSE       CLOUDY    31  24  75 E9        29.81S WCI  23
ROME           MOSUNNY   31  24  75 SE6       29.86S WCI  25
ELMIRA         CLOUDY    26  24  92 SE3       29.79S
BINGHAMTON     CLOUDY    29  22  75 E8        29.75S WCI  21
MONTICELLO     CLOUDY    30  21  69 E12       29.79F WCI  21
$$

NYZ026>034-041>043-081500-
NORTH


CITY           SKY/WX    TMP DP  RH WIND       PRES   REMARKS
WATERTOWN      CLOUDY    22  15  75 NE12      29.85S WCI  10
FORT DRUM      NOT AVBL
MASSENA        MOSUNNY   19   7  59 E15       29.96S WCI   5
SARANAC LAKE   CLOUDY    19  15  84 MISG      29.80S
PLATTSBURGH    CLOUDY    19   8  62 N10       29.96R WCI   7
$$

NYZ001>004-010>016-019>021-081500-
WEST


CITY           SKY/WX    TMP DP  RH WIND       PRES   REMARKS
NIAGARA FALLS  CLOUDY    41  27  57 SE7       29.68S
BUFFALO        CLOUDY    40  26  57 E8        29.68S WCI  34
DUNKIRK        CLOUDY    40  26  57 SE10      29.67S WCI  33
JAMESTOWN      CLOUDY    36  21  55 S9        29.65S WCI  29
WELLSVILLE     CLOUDY    33  21  61 SE8       29.70S WCI  26
ROCHESTER      CLOUDY    38  26  62 SE7       29.74S WCI  33
PENN YAN       CLOUDY    33  26  75 SE3       29.76S
$$

             KEY
       WCI = WIND CHILL INDEX
       VSB = VISIBILITY
       HX  = HEAT INDEX
$$



USA.gov is the U.S. government's official web portal to all federal, state and local government web resources and services.